Location: Lake Arresoe
(56.0000°N, 12.5000°E)
Time: 08:18:35
(UTC+01:00)

Resurs 1-4 Rocket - Visible Passes

Search period start: 21 February 2019 00:00
Search period end: 03 March 2019 00:00
Orbit: 800 x 813 km, 98.6° (Epoch: 20 February)

Date Brightness Start Highest point End Pass type
(mag) Time Alt. Az. Time Alt. Az. Time Alt. Az.
21 Feb 4.8 01:21:24 10° NNE 01:22:18 14° NE 01:22:18 14° NE visible
21 Feb 3.9 03:01:07 10° N 03:03:24 25° N 03:03:24 25° N visible
21 Feb 4.0 04:42:10 10° N 04:44:29 15° NW 04:44:29 15° NW visible
22 Feb 4.9 00:57:10 10° NE 00:57:32 11° NE 00:57:32 11° NE visible
22 Feb 4.0 02:36:26 10° NNE 02:38:37 25° NNE 02:38:37 25° NNE visible
22 Feb 3.9 04:17:07 10° N 04:19:42 19° NNW 04:19:42 19° NNW visible
23 Feb 4.2 02:11:49 10° NNE 02:13:50 24° NNE 02:13:50 24° NNE visible
23 Feb 3.7 03:52:11 10° N 03:54:55 23° NNW 03:54:55 23° NNW visible
24 Feb 4.4 01:47:17 10° NNE 01:49:03 21° NNE 01:49:03 21° NNE visible
24 Feb 3.6 03:27:22 10° N 03:30:08 27° NNW 03:30:08 27° NNW visible
24 Feb 4.2 05:09:14 10° NNW 05:10:44 11° NW 05:11:13 11° NW visible
25 Feb 4.6 01:22:52 10° NNE 01:24:16 17° NE 01:24:16 17° NE visible
25 Feb 3.6 03:02:37 10° N 03:05:21 30° N 03:05:21 30° N visible
25 Feb 4.0 04:43:43 10° N 04:46:26 15° NW 04:46:26 15° NW visible
26 Feb 4.8 00:58:37 10° NE 00:59:29 13° NE 00:59:29 13° NE visible
26 Feb 3.7 02:37:55 10° NNE 02:40:34 30° N 02:40:34 30° N visible
26 Feb 3.8 04:18:38 10° N 04:21:40 19° NW 04:21:40 19° NW visible
27 Feb 3.9 02:13:19 10° NNE 02:15:48 28° NNE 02:15:48 28° NNE visible
27 Feb 3.6 03:53:42 10° N 03:56:53 24° NNW 03:56:53 24° NNW visible
28 Feb 4.1 01:48:46 10° NNE 01:51:01 25° NE 01:51:01 25° NE visible
28 Feb 3.4 03:28:52 10° N 03:32:06 30° NNW 03:32:06 30° NNW visible
28 Feb 4.2 05:10:50 10° NNW 05:12:12 11° NW 05:13:11 10° NW visible
01 Mar 4.4 01:24:21 10° NNE 01:26:14 20° NE 01:26:14 20° NE visible
01 Mar 3.3 03:04:07 10° N 03:07:19 34° N 03:07:19 34° N visible
01 Mar 4.0 04:45:15 10° N 04:48:03 15° NW 04:48:24 15° NW visible
02 Mar 4.6 01:00:06 10° NE 01:01:27 16° NE 01:01:27 16° NE visible
02 Mar 3.4 02:39:25 10° NNE 02:42:32 36° N 02:42:32 36° N visible
02 Mar 3.7 04:20:09 10° N 04:23:37 19° NW 04:23:37 19° NW visible
